www.pogodaiklimat.ru

Погода и климат >> Архив погоды >> Россия >> Якутия >> Чернышевский


ПОГОДА в Чернышевском

  • Прогноз погоды в Чернышевском
  • Монитор погоды в Чернышевском

АРХИВ ПОГОДЫ в Чернышевском

Время (UTC), дата Ветер
(напр.,м/с)
 
Видим.   Явления Облачность Т
(С)
Тd
(С)
f
(%)
Тe
(С)
Тes
(С)
Комфортность P
(гПа)
Po
(гПа)
Тmin
(С)
Tmax
(С)
R
(мм)
R24
(мм)
S
(см)
06 13.09 ЮЗ 5
{12}
50 км 10/8 600 м
[Cb cap Ac trans Ci fib]
+2.5 -7.0 49 -2 -2 1003.7 952.8
09 13.09 Ю 4 50 км {ливн. осадки} 10/6 600 м
[Cb cap Ac trans Ci fib]
+2.7 -5.8 53 -1 -1 1003.1 952.3
12 13.09 Ю 1 50 км {ливн. осадки} 10/3 600 м
[Cb cap Ac trans]
+1.1 -7.3 53 -0 -0 1002.8 951.7 +3.3 0.0
15 13.09 СВ 2 50 км 1/0
[Ac trans]
-0.7 -7.7 59 -4 -4 1001.1 949.7
18 13.09 В 2 50 км 10/0
[Ac und]
-1.9 -6.8 69 -5 -5 999.1 947.5
21 13.09 ЮЗ 2 4000 м слаб. ливневой снег 10/10 600 м
[Cb cap]
-2.6 -3.2 96 -7 -7 998.3 946.6
00 14.09 ЮЗ 2 10 км слаб. ливневой снег 10/10 600 м
[Cb cap]
-2.6 -3.2 96 -7 -7 997.8 946.4 -3.0 6 6
03 14.09 З 2 50 км {ливн. осадки} 1/1 600 м
[Sc]
+0.4 -5.1 67 -3 +1 997.6 946.6
06 14.09 ЮЗ 5
{10}
50 км {ливн. осадки} 3/3 600 м
[Cu Sc Ac trans]
+2.1 -8.5 45 -3 -1 997.2 946.5
09 14.09 Ю 5-10
{12}
50 км 10/6 600 м
[Cb cap Ac As Ci sp]
+2.0 -6.9 52 -3 -3 998.2 947.5
12 14.09 ЮЗ 3
{12}
2000 м ливневой снег 10/10 600 м
[Cb cap]
-1.8 -2.0 99 -7 -7 999.6 948.2 +2.4 2
15 14.09 Ю 4 2000 м слаб. ливневой снег 10/10 600 м
[Cb cap]
-1.5 -2.0 96 -7 -7 998.6 947.3
18 14.09 Ю 2 2000 м слаб. ливневой снег 10/10 600 м
[Cb cap]
-1.8 -2.0 99 -6 -6 998.0 946.6
21 14.09 Ю 2 2000 м слаб. ливневой снег 10/10 600 м
[Cb cap]
-1.8 -2.0 99 -6 -6 998.2 946.8
00 15.09 Ю 1 2000 м дымка {ливн. осадки} 10/10 600 м
[Cb cap]
-1.3 -1.8 96 -4 -4 998.8 947.5 -2.0 4 5
03 15.09 СВ 1 4000 м слаб. ливневой снег 10/10 600 м
[Cb cap]
-0.5 -1.1 96 -3 -3 1000.2 948.9
06 15.09 штиль 0 50 км в посл. час ливневой снег 10/6 600 м
[Cb cap Ci fib]
+0.2 -0.9 92 -1 +1 1000.9 949.7
09 15.09 Ю 2 50 км 10/10 600 м
[Cb cap]
-0.1 -0.9 94 -4 -4 1002.4 951.1
12 15.09 Ю 1 10 км слаб. ливневой дождь со снегом 10/10 600 м
[Cb cap]
-0.6 -1.8 92 -3 -3 1003.1 951.7 +0.7 0.6
15 15.09 Ю 2 4000 м ливневой снег 10/10 300 м
[Cb cap]
-0.9 -1.3 97 -5 -5 1002.9 951.4
18 15.09 Ю 1 4000 м ливневой снег 10/8 300 м
[Cb cap Ac und]
-0.9 -1.1 99 -3 -3 1002.1 950.6
21 15.09 ЮЗ 3 1000 м слаб. ливневой дождь со снегом 10/10 300 м
[Cb cap]
-0.3 -0.3 100 -5 -5 1002.0 950.7
00 16.09 СЗ 2 1000 м в посл. час ливневой снег 10/10 300 м
[Cb cap]
-0.2 -0.2 100 -4 -4 1003.2 951.9 -1.0 4 2
03 16.09 С 3 50 км {ливн. осадки} 6/3 600 м
[St Ac trans Ci sp]
-0.5 -2.0 90 -5 -3 1006.3 954.7 -1.4
06 16.09 С 2 50 км {ливн. осадки} 8/4 600 м
[Cu med, cong Ci fib]
+0.4 -3.4 76 -3 -1 1009.1 957.6
09 16.09 СЗ 2 50 км 3/1 600 м
[Cu med, cong Ci fib]
+2.0 -3.7 66 -1 -0 1011.3 960.0
12 16.09 З 3 50 км 3/0
[Ci fib]
+0.6 -5.6 63 -4 -4 1013.9 962.2 +2.2 0.0
15 16.09 З 3 50 км 4/0
[Ci fib]
-0.4 -3.8 78 -5 -5 1015.6 963.6
18 16.09 ЮЗ 2 50 км ясно -1.1 -2.7 89 -5 -5 1016.4 964.3
21 16.09 Ю 2 50 км 3/0
[Ci fib]
-1.1 -1.5 97 -5 -5 1017.1 964.9
00 17.09 ЮЗ 3 50 км 10/0
[Ac trans Cc]
-0.6 -1.0 97 -6 -5 1017.6 965.5 -1.9 0
03 17.09 ЮЗ 2 50 км 10/6 600 м
[Cb cap Ac und]
+1.2 -1.4 83 -2 -2 1017.8 966.1
06 17.09 ЮВ 3 50 км {ливн. осадки} 10/6 600 м
[Cb cap Ac trans Cs]
+2.1 -1.9 75 -2 -1 1017.9 966.3
09 17.09 Ю 2 50 км 10/4 600 м
[Sc Ac trans Ci fib]
+2.4 -1.2 77 -1 -0 1018.3 966.7
12 17.09 ЮЗ 2 50 км {ливн. осадки} 10/10 600 м
[Cb cap]
+1.2 +0.9 98 -2 -2 1019.0 967.2 +2.8 0.7
15 17.09 ЮЗ 1 50 км {ливн. осадки} 10/0
[Ac und]
+1.1 +0.3 94 -1 -1 1019.1 967.2
18 17.09 Ю 2 50 км {ливн. осадки} 10/0
[Ac und]
+0.5 -0.1 96 -3 -3 1018.9 966.9
21 17.09 В 1 50 км 8/0
[Ac trans Ci fib]
0.0 -0.3 98 -2 -2 1018.2 966.3
00 18.09 С 1 500 м туман ?/? -0.5 -0.5 100 -3 -3 1018.2 966.1 -0.5 0.3
03 18.09 В 3 4000 м в посл. час туман 10/10 300 м
[St]
+1.4 +0.9 96 -3 -3 1016.7 965.0 -0.8
06 18.09 В 1 50 км {ливн. осадки, туман} 10/10 600 м
[Cb cap]
+1.2 +0.7 96 -1 -1 1014.7 963.1
09 18.09 СВ 2 2000 м ливневой дождь со снегом 10/10 300 м
[Cb cap]
+0.3 0.0 98 -4 -4 1013.7 962.0
12 18.09 С 3 500 м ливневой дождь со снегом {туман} туман ?/? -0.4 -0.4 100 -5 -5 1013.6 961.7 +1.8 4
15 18.09 СВ 2
{11}
500 м туман {ливн. осадки} ?/? -1.5 -1.5 100 -6 -6 1012.7 960.6
18 18.09 СВ 1 50 км {ливн. осадки, туман} 3/0
[Ci fib]
-2.5 -4.1 89 -5 -5 1012.3 960.1
21 18.09 С 1 50 км ясно -3.5 -6.0 83 -6 -6 1013.5 961.0
00 19.09 С 2 50 км ясно -3.4 -6.2 81 -7 -7 1014.8 962.3 -4.5 1 1
03 19.09 СЗ 2 50 км ясно +0.3 -2.9 79 -3 +1 1015.5 963.6
06 19.09 СЗ 2 50 км 3/3 600 м
[Cu hum]
+3.5 -6.3 49 +1 +4 1015.6 964.3
09 19.09 З 2 50 км ясно +4.5 -8.3 39 +3 +3 1016.6 965.3
12 19.09 ЮЗ 2 50 км 5/0
[Ci sp]
+1.9 -5.5 58 -1 -1 1018.2 966.5 +4.6
15 19.09 ЮЗ 3 50 км ясно +0.9 -3.4 73 -3 -3 1019.0 967.1
18 19.09 Ю 2 50 км ясно +0.4 -3.7 74 -3 -3 1018.3 966.4
21 19.09 Ю 2 50 км ясно -0.7 -4.5 75 -4 -4 1018.4 966.2
00 20.09 Ю 3 50 км 10/0
[Ci fib]
-1.6 -2.7 92 -7 -6 1017.0 964.7 -2.7

 

Местоположение метеостанции Чернышевский (Якутия, Россия): широта 63.03 долгота 112.40 высота над уровнем моря 422 м.

В архиве по умолчанию представлена погода в Чернышевском за последнюю неделю. Архивные данные за месяц целиком и за предыдущие месяцы, начиная с января 2011 года, Вы можете получить, выбрав интересующий диапазон дат из раскрывающегося списка и нажав кнопку "Ввод!".


*Определитесь, кто Вы:
робот инопланетянин человек

Внимание! Время в таблицах - всемирное. Для получения местного времени необходимо прибавить поправку, которая равна 9 ч.

Смотрите также архив погоды в соседних городах и на ближайших метеорологических станциях:

Погода в Туой-Хае (Якутия, Россия) (83 км)
Погода в Мирном (Якутия, Россия) (90 км)
Погода в Хабардино (Якутия, Россия) (175 км)
Погода в Дорожном (Якутия, Россия) (194 км)
Погода в Крестяхе (Якутия, Россия) (207 км)
Погода в Чумпуруке (Якутия, Россия) (259 км)
Погода в Сунтаре (Якутия, Россия) (283 км)
Погода в Ленске (Якутия, Россия) (286 км)
Погода в Нюрбе (Якутия, Россия) (298 км)
Погода в Ербогачене (Иркутская область, Россия) (301 км)

Пояснения к столбцам:

Ветер - указаны скорость ветра в м/с - средняя за 10 мин, порывы в срок и между сроками (в фигурных скобках) и направление, откуда дует ветер: С - северный, СВ - северо-восточный, В - восточный, ЮВ - юго-восточный, Ю - южный, ЮЗ - юго-западный, З - западный, СЗ - северо-западный.
Видимость - горизонтальная дальность видимости в метрах или километрах. При видимости от 1 до 10 км при отсутствии осадков обычно наблюдается дымка, при ухудшении видимости до 1 км и менее - туман. В сухую погоду видимость может ухудшаться дымом, пылью или мглою.
Явления - указаны атмосферные явления, наблюдавшиеся в срок или в последний час перед сроком; фигурными скобками обозначены явления, наблюдавшиеся между сроками (за 1-3 часа до срока); квадратными скобками обозначены град или гололедные отложения с указанием их диаметра в мм.
Облачность - указаны через наклонную черту общая и нижняя облачность в баллах и высота нижней границы облаков в метрах; квадратными скобками обозначены формы облаков: Ci - перистые, Cs - перисто-слоистые, Cc - перисто-кучевые, Ac - высококучевые, As - высокослоистые, Sc - слоисто-кучевые, Ns - слоисто-дождевые, Cu - кучевые, Cb - кучево-дождевые. Подробнее классификацию облаков см. в Атласе облаков (PDF).
T - Температура воздуха - температура, измеренная на высоте 2 м над землей.
Td - Температура точки росы - температура, при понижении до которой содержащийся в воздухе водяной пар достигнет насыщения.
f - Относительная влажность воздуха - влажноcть воздуха, измеренная на высоте 2 м над землей.
Te - Эффективная температура - температура, которую ощущает одетый по сезону человек в тени. Характеристика душности погоды. При расчете учитывается влияние влажности воздуха и скорости ветра на теплоощущения человека.
Tes - Эффективная температура на солнце - температура, которую ощущает человек, с поправкой на солнечный нагрев. Характеристика знойности погоды. Зависит от высоты солнца над горизонтом, облачности и скорости ветра. Ночью, в пасмурную погоду, а также при ветре 12 м/с и более поправка равна нулю.
P - Атмосферное давление - приведенное к уровню моря атмосферное давление.
Po - Атмосферное давление - измеренное на уровне метеостанции атмосферное давление.
Tmin - Минимальная температура - минимум температуры воздуха на высоте 2 м над землей.
Tmax - Максимальная температура - максимум температуры воздуха на высоте 2 м над землей.
R - Количество осадков - Количество выпавших осадков за период времени, мм. При наведении курсора мыши на число - период времени, за который выпало указанное количество осадков.
R24 - Количество осадков - Количество выпавших осадков за 24 часа, мм.
S - Снежный покров - Высота снежного покрова, см. При наведении курсора мыши на число - состояние снежного покрова и степень покрытия местности в баллах.